This demonstration page uses our WeatherBlox Daily Observations layout. Learn more.

Left ArrowRight Arrow

Hourly Observations for March 11, 2020

Temp ( °F °C ) Dew Point ( °F °C ) Humidity (%) Winds ( mph kmh ) Pressure ( in mb ) Visibility ( mi km ) Precip ( " mm )
12:37 am 00:37 Mostly Clear with Mist and Fog 39 4 37 3 93 93 NNW 8 13 30.14 1021 6 10 0.00 0.00
12:56 am 00:56 Mostly Clear 38 3.3 37 2.8 97 97 NNW 6 9 30.11 1020 9 14 0.00 0.00
1:07 am 01:07 Mostly Clear with Mist and Fog 36 2 34 1 93 93 N 10 17 30.14 1021 2 3 0.00 0.00
1:10 am 01:10 Mostly Cloudy with Light Rain 36 2 34 1 93 93 N 10 17 30.15 1021 1 1 0.00 0.00
1:14 am 01:14 Mostly Cloudy with Light Rain 36 2 34 1 93 93 N 9 15 30.15 1021 0 0 0.00 0.00
1:56 am 01:56 Cloudy with Light Rain 35 1.7 35 1.7 100 100 N 9 15 30.10 1019 0 0 0.00 0.00
2:56 am 02:56 Cloudy with Light Rain 34 1.1 34 1.1 100 100 NNW 7 11 30.09 1019 0 0 0.00 0.00
3:56 am 03:56 Cloudy with Light Rain 33 0.6 33 0.6 100 100 N 6 9 30.06 1018 0 0 0.00 0.00
4:56 am 04:56 Cloudy with Light Wintry Mix 32 0 32 0 100 100 NW 5 7 30.06 1018 0 0 0.00 0.00
5:56 am 05:56 Cloudy with Light Rain 35 1.7 35 1.7 100 100 N 5 7 30.05 1018 0 0 0.00 0.00
6:56 am 06:56 Cloudy with Light Rain 36 2.2 36 2.2 100 100 WNW 5 7 30.05 1018 0 0 0.00 0.00
7:56 am 07:56 Cloudy with Light Rain 35 1.7 35 1.7 100 100 VRB 5 7 30.05 1018 N/A 0.00 0.00
8:56 am 08:56 Cloudy with Light Rain 34 1.1 34 1.1 100 100 W 6 9 30.06 1018 0 0 0.00 0.00
9:56 am 09:56 Cloudy with Light Rain 35 1.7 35 1.7 100 100 VRB 3 6 30.06 1018 0 0 0.00 0.00
10:51 am 10:51 Cloudy with Light Rain 39 4 39 4 100 100 WSW 8 13 30.09 1019 1 1 0.00 0.00
10:52 am 10:52 Cloudy with Light Rain 39 4 39 4 100 100 SW 8 13 30.09 1019 1 2 0.00 0.00
10:56 am 10:56 Cloudy with Mist and Fog 39 3.9 39 3.9 100 100 SW 7 11 30.06 1018 1 2 0.00 0.00
11:03 am 11:03 Cloudy with Mist and Fog 39 4 39 4 100 100 WSW 6 9 30.09 1019 3 5 0.00 0.00
11:44 am 11:44 Partly Cloudy 45 7 43 6 93 93 SSW 8 13 30.04 1017 10 16 0.00 0.00
11:56 am 11:56 Mostly Sunny 46 7.8 43 6.1 89 89 SSW 9 15 30.02 1017 10 16 0.00 0.00
12:56 pm 12:56 Sunny 59 15 43 6.1 56 56 SW 15 24 29.97 1015 10 16 0.00 0.00
1:56 pm 13:56 Sunny 64 17.8 36 2.2 35 35 SSW 18 30 29.92 1013 10 16 0.00 0.00
2:56 pm 14:56 Sunny 67 19.4 35 1.7 31 31 SW 17 28 29.87 1012 10 16 0.00 0.00
3:56 pm 15:56 Sunny 69 20.6 36 2.2 30 30 SW 20 31 29.82 1010 10 16 0.00 0.00
4:56 pm 16:56 Sunny 70 21.1 32 0 25 25 SW 18 30 29.79 1009 10 16 0.00 0.00
5:56 pm 17:56 Sunny 70 21.1 35 1.7 28 28 SSW 14 22 29.77 1008 10 16 0.00 0.00
6:56 pm 18:56 Sunny 67 19.4 35 1.7 31 31 SSW 17 28 29.76 1008 10 16 0.00 0.00
7:56 pm 19:56 Clear 58 14.4 37 2.8 46 46 SSW 9 15 29.76 1008 10 16 0.00 0.00
8:56 pm 20:56 Clear 57 13.9 37 2.8 47 47 SSW 14 22 29.75 1007 10 16 0.00 0.00
9:56 pm 21:56 Clear 55 12.8 38 3.3 53 53 SSW 14 22 29.74 1007 10 16 0.00 0.00
10:56 pm 22:56 Clear 56 13.3 39 3.9 53 53 S 18 30 29.72 1006 10 16 0.00 0.00
11:56 pm 23:56 Clear 52 11.1 39 3.9 61 61 S 13 20 29.71 1006 10 16 0.00 0.00

Powered by AerisWeather